Location: Bois de la Silve
(44.4667°N, 6.7833°E)
Time: 21:06:28
(UTC+00:00)

Cosmos 1656 - Pass Details

Date: 14 July 2020
Orbit: 799 x 848 km, 71.1° (Epoch: 14 August)

Event Time Altitude Azimuth Distance (km) Brightness Sun altitude
Rises 00:45:05 0° 337° (NNW) 3,317 7.6 -22.2°
Reaches altitude 10° 00:47:32 10° 341° (NNW) 2,383 6.8 -22.1°
Maximum altitude 00:52:55 61° 62° (ENE) 907 4.0 -21.8°
Enters shadow 00:56:35 21° 137° (SE) 1,755 5.1 -21.6°
